Weerstation Grootegast  Weerstation Grootegast


15 daagse weersverwachting Stavanger (NO)

  • Overzicht
  • Per uur
  • 15 dagen
  • Extra
  • Vergelijk
  • Kaarten
  • Dagkaart
  • Meer »
  • Info
  • Statistieken
  • Directe link
    Temp 6h Neerslag Wind  
 07:02     20:20    Daglengte: 13:18 Vandaag
08:00
0.3 mm
6
14:00
1.7 mm
7
20:00
5.3 mm
7
 06:59     20:23    Daglengte: 13:24 Morgen
02:00
 
6
08:00
3.0 mm
11
warningclass
14:00
6.8 mm
12
20:00
3.7 mm
9
 06:56     20:25    Daglengte: 13:29 Vrijdag 03 Apr
02:00
11.0 mm
8
08:00
8.9 mm
7
14:00
19.6 mm
7
20:00
19.3 mm
5
 06:53     20:27    Daglengte: 13:34 Zaterdag 04 Apr
02:00
11.5 mm
3
Locatie info
Region: Rogaland
Latitude: 58.9710°N
Longitude: 5.7306°E
15 masl
Postcode: 4006
Temp/Neerslag /Baro Onweer/Dauwpunt
    Temp Baro 1h Neerslag Dauwpunt Wind UV Bewolking  
 07:02     20:20    Daglengte: 13:18 Vandaag
07:00
Voelt als: 2.6°
1013.5 hPa
48%
4.6°
5
Windvlaag: 7 m/s
82%
08:00
Voelt als: 2.3°
1013.0 hPa 0.3 mm
81%
4.6°
6
Windvlaag: 6.7 m/s
88%
09:00
Voelt als: 2.5°
1012.6 hPa
82%
4.3°
6
Windvlaag: 6.8 m/s
90%
10:00
Voelt als: 2.4°
1012.2 hPa
82%
4.0°
7
Windvlaag: 7.2 m/s
84%
11:00
Voelt als: 2.7°
1011.8 hPa
82%
4.0°
6
Windvlaag: 8.2 m/s
78%
12:00
Voelt als: 2.7°
1011.1 hPa
82%
4.4°
7
Windvlaag: 9.2 m/s
89%
13:00
Voelt als: 2.3°
1010.2 hPa 0.6 mm
80%
4.8°
7
Windvlaag: 10 m/s
91%
14:00
Voelt als: 2.1°
1009.2 hPa 1.1 mm
82%
4.9°
7
Windvlaag: 10.4 m/s
91%
15:00
Voelt als: 1.5°
1008.1 hPa 1.4 mm
82%
5.0°
9
Windvlaag: 10.7 m/s
90%
16:00
Voelt als: 1.6°
1007.2 hPa 1.1 mm
82%
5.0°
9
Windvlaag: 12.7 m/s
88%
17:00
Voelt als: 1.8°
1006.5 hPa 1.0 mm
82%
5.2°
9
Windvlaag: 13.1 m/s
83%
18:00
Voelt als: 2.5°
1005.9 hPa 1.1 mm
82%
5.4°
8
Windvlaag: 13.2 m/s
53%
19:00
Voelt als: 2.5°
1005.6 hPa 0.8 mm
77%
4.0°
8
Windvlaag: 11.8 m/s
42%
20:00
Voelt als: 2.3°
1005.4 hPa
73%
3.6°
7
Windvlaag: 9.7 m/s
24%
21:00
Voelt als: 2.0°
1005.5 hPa
71%
3.4°
6
Windvlaag: 6.5 m/s
52%
22:00
Voelt als: 2.0°
1005.4 hPa
75%
2.9°
6
Windvlaag: 5.9 m/s
42%
23:00
Voelt als: 2.0°
1005.2 hPa
77%
2.4°
6
Windvlaag: 6.7 m/s
35%
 06:59     20:23    Daglengte: 13:24 Morgen
00:00
Voelt als: 1.8°
1004.8 hPa
81%
1.7°
6
Windvlaag: 6.8 m/s
29%
01:00
Voelt als: 1.6°
1004.5 hPa
67%
1.3°
6
Windvlaag: 7.2 m/s
19%
02:00
Voelt als: 1.7°
1003.8 hPa
69%
1.7°
6
Windvlaag: 6.8 m/s
53%
03:00
Voelt als: 1.6°
1002.8 hPa
26%
1.0°
6
Windvlaag: 7.4 m/s
59%
04:00
Voelt als: 1.5°
1001.6 hPa
82%
2.2°
6
Windvlaag: 8.2 m/s
62%
05:00
Voelt als: 1.1°
1000.2 hPa
82%
2.2°
8
Windvlaag: 11.8 m/s
76%
06:00
Voelt als: 0.6°
998.5 hPa 0.9 mm
82%
2.1°
9
Windvlaag: 14.4 m/s
65%
07:00
Voelt als: -0.3°
996.9 hPa 1.2 mm
82%
2.7°
10
Windvlaag: 15.6 m/s
60%
08:00
Voelt als: -0.0°
994.9 hPa 0.9 mm
82%
1.8°
11
Windvlaag: 17.2 m/s
87% warningclass
09:00
Voelt als: -0.0°
993.1 hPa 1.1 mm
82%
2.9°
12
Windvlaag: 19 m/s
89% warningclass
10:00
Voelt als: 0.1°
992.1 hPa 1.3 mm
82%
3.7°
13
Windvlaag: 19.5 m/s
86% warningclass
11:00
Voelt als: -0.6°
991.5 hPa 1.7 mm
80%
2.9°
12
Windvlaag: 19.2 m/s
89% warningclass
12:00
Voelt als: -0.7°
991.2 hPa 1.3 mm
76%
1.4°
13
Windvlaag: 16.8 m/s
79%
13:00
Voelt als: -1.2°
991.0 hPa
82%
-0.2°
12
Windvlaag: 16.9 m/s
70%
14:00
Voelt als: -1.5°
990.5 hPa 1.4 mm
82%
-2.2°
12
Windvlaag: 17 m/s
61%
15:00
Voelt als: -0.9°
989.8 hPa
82%
-0.6°
11
Windvlaag: 17.7 m/s
68% warningclass
16:00
Voelt als: -1.6°
988.0 hPa
82%
-1.0°
13
Windvlaag: 18.9 m/s
91% warningclass
17:00
Voelt als: -2.4°
988.1 hPa 1.5 mm
82%
1.4°
12
Windvlaag: 17.9 m/s
74% warningclass
18:00
Voelt als: -1.4°
989.0 hPa 2.2 mm
82%
-0.1°
12
Windvlaag: 16.2 m/s
31%
19:00
Voelt als: -2.0°
990.4 hPa
79%
0.7°
11
Windvlaag: 13.4 m/s
14%
20:00
Voelt als: -1.3°
991.6 hPa
80%
-0.5°
9
Windvlaag: 11.7 m/s
31%
21:00
Voelt als: -1.4°
992.7 hPa 2.0 mm
82%
-0.7°
8
Windvlaag: 9.7 m/s
31%
22:00
Voelt als: -2.0°
993.9 hPa
81%
0.2°
9
Windvlaag: 8.6 m/s
53%
23:00
Voelt als: -2.2°
994.5 hPa 2.1 mm
100%
-0.5°
9
Windvlaag: 10.9 m/s
68%
 06:56     20:25    Daglengte: 13:29 Vrijdag 03 Apr
00:00
Voelt als: -2.8°
995.3 hPa 2.3 mm
100%
2.0°
9
Windvlaag: 9.5 m/s
44%
01:00
Voelt als: -2.7°
995.9 hPa 2.3 mm
100%
-1.5°
8
Windvlaag: 6.8 m/s
79%
02:00
Voelt als: -2.5°
996.3 hPa 2.3 mm
100%
-3.0°
8
Windvlaag: 8.9 m/s
40%
03:00
Voelt als: -3.2°
996.7 hPa 2.2 mm
100%
-4.7°
9
Windvlaag: 9 m/s
21%
04:00
Voelt als: -2.8°
996.8 hPa 2.2 mm
100%
-4.9°
8
Windvlaag: 8.7 m/s
57%
05:00
Voelt als: -3.2°
997.0 hPa 2.2 mm
100%
-4.8°
9
Windvlaag: 9.2 m/s
79%
06:00
Voelt als: -3.1°
997.2 hPa 2.2 mm
100%
-1.1°
8
Windvlaag: 8.8 m/s
36%
07:00
Voelt als: -2.9°
998.0 hPa
94%
-1.7°
7
Windvlaag: 7.7 m/s
30%
08:00
Voelt als: -3.2°
999.2 hPa
37%
1.1°
7
Windvlaag: 8.2 m/s
37%
09:00
Voelt als: -2.7°
1000.0 hPa 3.5 mm
30%
0.8°
7
Windvlaag: -2 m/s
43%
10:00
Voelt als: -2.8°
1001.1 hPa 4.1 mm
46%
0.6°
7
Windvlaag: -3.3 m/s
39%
11:00
Voelt als: -2.4°
1002.2 hPa 4.2 mm
100%
0.4°
7
Windvlaag: -2.5 m/s
49%
12:00
Voelt als: -2.2°
1003.3 hPa 2.5 mm
100%
0.3°
7
Windvlaag: -2.7 m/s
58%
13:00
Voelt als: -1.7°
1004.3 hPa 2.7 mm
100%
0.4°
7
Windvlaag: -2 m/s
63%
14:00
Voelt als: -1.3°
1005.4 hPa 2.7 mm
100%
-0.2°
7
Windvlaag: -1.2 m/s
65%
15:00
Voelt als: -1.3°
1006.0 hPa 2.6 mm
100%
-0.3°
7
Windvlaag: -2.5 m/s
56%
16:00
Voelt als: -1.3°
1006.5 hPa 2.6 mm
100%
-0.4°
7
Windvlaag: -2.5 m/s
61%
17:00
Voelt als: -1.1°
1007.2 hPa 2.7 mm
100%
-1.0°
6
Windvlaag: -2 m/s
48%
18:00
Voelt als: -1.2°
1007.8 hPa 4.4 mm
100%
-1.7°
6
Windvlaag: -1.7 m/s
43%
19:00
Voelt als: -1.3°
1008.5 hPa 2.6 mm
100%
-1.6°
6
Windvlaag: -1.9 m/s
39%
20:00
Voelt als: -0.9°
1009.2 hPa 4.3 mm
100%
-1.6°
5
Windvlaag: -1.1 m/s
32%
21:00
Voelt als: -0.8°
1010.0 hPa 4.3 mm
100%
-1.6°
5
Windvlaag: -2.7 m/s
31%
22:00
Voelt als: -1.2°
1010.9 hPa
100%
-1.7°
5
Windvlaag: -2.1 m/s
33%
23:00
Voelt als: -1.1°
1011.5 hPa 2.7 mm
100%
-1.6°
4
Windvlaag: -2.3 m/s
36%
 06:53     20:27    Daglengte: 13:34 Zaterdag 04 Apr
00:00
Voelt als: -0.6°
1012.2 hPa 4.5 mm
97%
-1.6°
3
Windvlaag: -1.8 m/s
41%
01:00
Voelt als: -0.5°
1012.8 hPa
90%
-1.6°
3
Windvlaag: -2 m/s
49%
02:00
Voelt als: -0.8°
1013.3 hPa
89%
-2.1°
3
Windvlaag: -0.4 m/s
49%
03:00
Voelt als: -0.9°
1014.1 hPa 4.6 mm
91%
-2.5°
3
Windvlaag: 9.6 m/s
27%
04:00
Voelt als: -1.0°
1014.6 hPa 4.7 mm
92%
-2.5°
3
Windvlaag: 8.5 m/s
37%
05:00
Voelt als: -0.8°
1015.2 hPa 4.7 mm
91%
-2.4°
3
Windvlaag: 7.6 m/s
39%
06:00
Voelt als: -0.6°
1015.7 hPa 4.7 mm
90%
-2.3°
2
Windvlaag: 6.8 m/s
42%
Temp/Neerslag /Baro Onweer/Dauwpunt
    Temp Baro Neerslag Dauwpunt Wind Bewolking  
 07:02     20:20    Daglengte: 13:18 Vandaag
08:00
Voelt als: 2.3°
1013.0 hPa 0.3 mm 4.6°
6
88%
11:00
Voelt als: 2.7°
1011.8 hPa   4.0°
6
78%
14:00
Voelt als: 2.1°
1009.2 hPa 1.7 mm 4.9°
7
91%
17:00
Voelt als: 1.8°
1006.5 hPa 3.4 mm 5.2°
9
83%
20:00
Voelt als: 2.3°
1005.4 hPa 1.9 mm 3.6°
7
24%
23:00
Voelt als: 2.0°
1005.2 hPa   2.4°
6
35%
 06:59     20:23    Daglengte: 13:24 Morgen
02:00
Voelt als: 1.7°
1003.8 hPa   1.7°
6
53%
05:00
Voelt als: 1.1°
1000.2 hPa   2.2°
8
76%
08:00
Voelt als: -0.0°
994.9 hPa 3.0 mm 1.8°
11
87% warningclass
11:00
Voelt als: -0.6°
991.5 hPa 4.0 mm 2.9°
12
89% warningclass
14:00
Voelt als: -1.5°
990.5 hPa 2.7 mm -2.2°
12
61%
17:00
Voelt als: -2.4°
988.1 hPa 1.5 mm 1.4°
12
74% warningclass
20:00
Voelt als: -1.3°
991.6 hPa 2.2 mm -0.5°
9
31%
23:00
Voelt als: -2.2°
994.5 hPa 4.0 mm -0.5°
9
68%
 06:56     20:25    Daglengte: 13:29 Vrijdag 03 Apr
02:00
Voelt als: -2.5°
996.3 hPa 7.0 mm -3.0°
8
40%
05:00
Voelt als: -3.2°
997.0 hPa 6.7 mm -4.8°
9
79%
08:00
Voelt als: -3.2°
999.2 hPa 2.2 mm 1.1°
7
37%
11:00
Voelt als: -2.4°
1002.2 hPa 11.8 mm 0.4°
7
49%
14:00
Voelt als: -1.3°
1005.4 hPa 7.8 mm -0.2°
7
65%
17:00
Voelt als: -1.1°
1007.2 hPa 7.9 mm -1.0°
6
48%
20:00
Voelt als: -0.9°
1009.2 hPa 11.3 mm -1.6°
5
32%
23:00
Voelt als: -1.1°
1011.5 hPa 7.1 mm -1.6°
4
36%
 06:53     20:27    Daglengte: 13:34 Zaterdag 04 Apr
02:00
Voelt als: -0.8°
1013.3 hPa 4.5 mm -2.1°
3
49%
05:00
Voelt als: -0.8°
1015.2 hPa 14.0 mm -2.4°
3
39%
08:00
Voelt als: 0.5°
1017.2 hPa 13.9 mm -1.9°
2
32%
11:00
Voelt als: 2.6°
1020.5 hPa 17.3 mm -1.7°
2
74%
14:00
Voelt als: 3.4°
1021.8 hPa 17.3 mm -1.9°
3
90%
17:00
Voelt als: 2.9°
1021.8 hPa 17.3 mm -0.0°
4
91%
20:00
Voelt als: 2.6°
1021.9 hPa 17.3 mm 1.6°
4
92%
23:00
Voelt als: 2.6°
1022.0 hPa 17.3 mm 2.6°
4
92%
 06:51     20:30    Daglengte: 13:39 Zondag 05 Apr
02:00
Voelt als: 2.6°
1022.1 hPa 17.3 mm 3.5°
5
92%
05:00
Voelt als: 2.6°
1020.8 hPa 17.3 mm 3.6°
5
92%
08:00
Voelt als: 2.8°
1019.6 hPa 17.3 mm 3.9°
5
92%
11:00
Voelt als: 4.2°
1019.0 hPa 17.3 mm 4.1°
6
91%
14:00
Voelt als: 5.6°
1018.4 hPa 17.3 mm 4.2°
7
91%
17:00
Voelt als: 4.9°
1016.8 hPa 17.3 mm 3.6°
6
91%
20:00
Voelt als: 4.1°
1015.2 hPa 17.3 mm 3.0°
6
91%
23:00
Voelt als: 4.2°
1013.7 hPa 17.3 mm 3.2°
7
91%
 06:48     20:32    Daglengte: 13:44 Maandag 06 Apr
02:00
Voelt als: 4.3°
1012.2 hPa 17.3 mm 3.5°
7
91%
05:00
Voelt als: 4.7°
1010.0 hPa 17.3 mm 4.6°
7
91%
08:00
Voelt als: 5.2°
1007.8 hPa 17.3 mm 5.6°
8
92%
11:00
10°
Voelt als: 6.6°
1008.0 hPa 17.3 mm 6.7°
8
92%
14:00
11°
1008.2 hPa 17.3 mm 7.8°
8
92%
17:00
10°
Voelt als: 6.7°
1007.9 hPa 17.5 mm 7.5°
7
92%
20:00
Voelt als: 5.5°
1007.7 hPa 20.2 mm 7.1°
6
92%
23:00
Voelt als: 5.6°
1011.9 hPa 20.7 mm 6.6°
4
86%
 06:45     20:34    Daglengte: 13:49 Dinsdag 07 Apr
02:00
Voelt als: 6.9°
1016.0 hPa 20.7 mm 6.0°
1
80%
05:00
Voelt als: 5.8°
1017.1 hPa 20.8 mm 5.9°
2
72%
08:00
Voelt als: 5.1°
1018.2 hPa 20.8 mm 5.7°
2
64%
11:00
Voelt als: 6.5°
1019.8 hPa 20.8 mm 6.0°
3
71%
14:00
10°
Voelt als: 8.0°
1021.4 hPa 20.8 mm 6.1°
4
79%
17:00
Voelt als: 7.4°
1021.8 hPa 20.8 mm 5.7°
3
70%
20:00
Voelt als: 6.8°
1022.1 hPa 20.8 mm 5.4°
2
61%
23:00
Voelt als: 5.8°
1023.1 hPa 20.8 mm 5.1°
3
75%
 06:42     20:37    Daglengte: 13:55 Woensdag 08 Apr
02:00
Voelt als: 5.1°
1024.0 hPa 20.9 mm 5.0°
3
88%
05:00
Voelt als: 4.7°
1023.2 hPa   4.9°
4
87%
08:00
Voelt als: 4.6°
1022.4 hPa 41.9 mm 4.8°
4
85%
14:00
11°
1021.5 hPa 41.9 mm 6.7°
4
86%
20:00
Voelt als: 6.4°
1010.2 hPa 41.9 mm 6.5°
6
92%
 06:39     20:39    Daglengte: 14:00 Donderdag 09 Apr
02:00
Voelt als: 5.9°
1013.3 hPa 41.9 mm 6.4°
5
92%
08:00
Voelt als: 6.4°
1019.0 hPa 41.9 mm 5.3°
2
81%
14:00
Voelt als: 7.5°
1018.5 hPa 41.9 mm 5.6°
4
83%
20:00
Voelt als: 5.4°
1019.0 hPa 41.9 mm 5.1°
4
76%
 06:36     20:41    Daglengte: 14:05 Vrijdag 10 Apr
02:00
Voelt als: 5.7°
1016.6 hPa 43.9 mm 5.5°
2
87%
08:00
Voelt als: 6.5°
1017.9 hPa 48.8 mm 5.1°
1
88%
14:00
Voelt als: 2.2°
1014.6 hPa 55.1 mm 5.6°
10
1%
20:00
Voelt als: 1.4°
1018.4 hPa 57.1 mm 2.8°
11
1%
 06:33     20:44    Daglengte: 14:11 Zaterdag 11 Apr
02:00
Voelt als: 3.7°
1016.6 hPa 1.4 mm 3.3°
3
58%
08:00
Voelt als: 4.0°
1016.3 hPa 1.5 mm 2.9°
3
66%
14:00
Voelt als: 4.9°
1016.5 hPa 0.9 mm 4.2°
3
64%
20:00
Voelt als: 4.4°
1015.0 hPa 0.8 mm 4.2°
3
66%
 06:30     20:46    Daglengte: 14:16 Zondag 12 Apr
02:00
Voelt als: 3.3°
1014.2 hPa 0.6 mm 3.6°
4
61%
08:00
Voelt als: 2.9°
1012.1 hPa 1.2 mm 3.4°
4
63%
14:00
Voelt als: 4.5°
1011.6 hPa 1.7 mm 4.0°
3
64%
20:00
Voelt als: 5.2°
1010.7 hPa 1.4 mm 3.7°
2
62%
 06:28     20:48    Daglengte: 14:20 Maandag 13 Apr
02:00
Voelt als: 4.8°
1011.6 hPa 1.0 mm 3.2°
1
57%
08:00
Voelt als: 5.1°
1011.9 hPa 0.2 mm 3.0°
1
57%
14:00
Voelt als: 5.8°
1013.0 hPa 1.1 mm 3.3°
1
47%
20:00
Voelt als: 5.1°
1013.6 hPa 0.8 mm 3.1°
2
44%
 06:25     20:51    Daglengte: 14:26 Dinsdag 14 Apr
02:00
Voelt als: 5.4°
1014.3 hPa 0.6 mm 2.8°
1
52%
08:00
Voelt als: 5.5°
1013.6 hPa 0.6 mm 2.7°
1
63%
14:00
Voelt als: 4.6°
1013.9 hPa 1.2 mm 3.3°
2
58%
20:00
Voelt als: 3.7°
1013.9 hPa 1.2 mm 3.0°
3
46%
 06:22     20:53    Daglengte: 14:31 Woensdag 15 Apr
02:00
Voelt als: 4.1°
1015.4 hPa 0.5 mm 2.3°
2
36%
08:00
Voelt als: 3.4°
1016.2 hPa 0.3 mm 1.4°
2
38%
14:00
Voelt als: 4.4°
1017.3 hPa 0.3 mm 1.9°
2
31%
20:00
Voelt als: 3.4°
1017.2 hPa 0.4 mm 1.8°
3
25%
 06:19     20:55    Daglengte: 14:36 Donderdag 16 Apr
02:00
Voelt als: 3.8°
1017.7 hPa 0.3 mm 1.4°
2
24%
  CAPE Lifted Index Hail Supercell Tornado SRH 3km CL BTM PRES CL TOP PRES Swiss DWD icon SMHI TS
 07:02     20:20    Daglengte: 13:18 Vandaag
07:00 62 J/kg 13.1 K 0 % 0 % 0 % 0 m²/s² 0 0 17.6 3
08:00 82 J/kg 13.2 K 0 % 0 % 0 % 0 m²/s² 0 0 16.59 3
09:00 70 J/kg 13.3 K 0 % 0 % 0 % 0 m²/s² 0 0 15.46 61
10:00 55 J/kg 13.2 K 0 % 0 % 0 % 0 m²/s² 0 0 15.03 61
11:00 43 J/kg 13.0 K 0 % 0 % 0 % 0 m²/s² 0 0 14.71 61
12:00 37 J/kg 12.3 K 0 % 0 % 0 % 0 m²/s² 0 0 13.62 3
13:00 22 J/kg 11.0 K 0 % 0 % 0 % 0 m²/s² 0 0 11.42 3
14:00 8 J/kg 9.2 K 0 % 0 % 0 % 0 m²/s² 0 0 9.68 61
15:00 14 J/kg 8.1 K 0 % 0 % 0 % 0 m²/s² 0 0 8.52 61
16:00 26 J/kg 7.1 K 0 % 0 % 0 % 0 m²/s² 0 0 8.69 80
17:00 60 J/kg 6.4 K 0 % 0 % 0 % 0 m²/s² 0 0 10.66 61
18:00 82 J/kg 5.6 K 0 % 0 % 0 % 0 m²/s² 0 0 15.89 80
19:00 86 J/kg 5.8 K 0 % 0 % 0 % 0 m²/s² 0 0 14.65 2
20:00 81 J/kg 6.1 K 0 % 0 % 0 % 0 m²/s² 0 0 13.57 2
21:00 43 J/kg 6.6 K 0 % 0 % 0 % 0 m²/s² 0 0 15.48 3
22:00 43 J/kg 6.7 K 0 % 0 % 0 % 0 m²/s² 0 0 15.58 1
23:00 33 J/kg 7.5 K 0 % 0 % 0 % 0 m²/s² 0 0 14.22 2
 06:59     20:23    Daglengte: 13:24 Morgen
00:00 16 J/kg 7.8 K 0 % 0 % 0 % 0 m²/s² 0 0 13.35 2
01:00 5 J/kg 8.3 K 0 % 0 % 0 % 0 m²/s² 0 0 13.55 1
02:00 27 J/kg 7.4 K 0 % 0 % 0 % 0 m²/s² 0 0 12.77 2
03:00 25 J/kg 7.3 K 0 % 0 % 0 % 0 m²/s² 0 0 13.15 3
04:00 49 J/kg 6.7 K 0 % 0 % 0 % 0 m²/s² 0 0 12.55 2
05:00 52 J/kg 6.2 K 0 % 0 % 0 % 0 m²/s² 0 0 11.42 3
06:00 37 J/kg 6.6 K 0 % 0 % 0 % 0 m²/s² 0 0 12.3 2
07:00 43 J/kg 6.5 K 0 % 0 % 0 % 0 m²/s² 0 0 10.97 2
08:00 28 J/kg 5.9 K 0 % 0 % 0 % 0 m²/s² 0 0 10.16 3
09:00 87 J/kg 5.8 K 0 % 0 % 0 % 0 m²/s² 0 0 10.03 80
10:00 108 J/kg 5.7 K 0 % 0 % 0 % 0 m²/s² 0 0 8.16 80
11:00 108 J/kg 5.7 K 0 % 0 % 0 % 0 m²/s² 0 0 8.22 3
12:00 86 J/kg 7.3 K 0 % 0 % 0 % 0 m²/s² 0 0 9.19 3
13:00 125 J/kg 8.5 K 0 % 0 % 0 % 0 m²/s² 0 0 12.19 85
14:00 132 J/kg 7.0 K 0 % 0 % 0 % 0 m²/s² 0 0 8.5 85
15:00 105 J/kg 4.7 K 0 % 0 % 0 % 0 m²/s² 0 0 5.45 3
16:00 165 J/kg 2.7 K 0 % 0 % 0 % 0 m²/s² 0 0 3.36 85
17:00 172 J/kg 1.9 K 0 % 0 % 0 % 0 m²/s² 0 0 2.56 85
18:00 3 J/kg 4.0 K 0 % 0 % 0 % 0 m²/s² 0 0 9.22 85
19:00 5 J/kg 3.4 K 0 % 0 % 0 % 0 m²/s² 0 0 7.3 1
20:00 102 J/kg 1.5 K 0 % 0 % 0 % 0 m²/s² 0 0 3.24 1
21:00 139 J/kg 1.2 K 0 % 0 % 0 % 0 m²/s² 0 0 3.36 2
22:00 142 J/kg 1.3 K 0 % 0 % 0 % 0 m²/s² 0 0 3.79 1
23:00 57 J/kg 2.2 K 0 % 0 % 0 % 0 m²/s² 0 0 4.81 3
 06:56     20:25    Daglengte: 13:29 Vrijdag 03 Apr
00:00 175 J/kg 0.7 K 0 % 0 % 0 % 0 m²/s² 0 0 2.77 85
01:00 150 J/kg 0.5 K 0 % 0 % 0 % 0 m²/s² 0 0 1.34 85
02:00 42 J/kg 1.4 K 0 % 0 % 0 % 0 m²/s² 0 0 2.57 85
03:00 54 J/kg 2.7 K 0 % 0 % 0 % 0 m²/s² 0 0 7.26 85
04:00 112 J/kg 2.5 K 0 % 0 % 0 % 0 m²/s² 0 0 4.6 85
05:00 99 J/kg 2.0 K 0 % 0 % 0 % 0 m²/s² 0 0 3.65 3
06:00 57 J/kg 1.8 K 0 % 0 % 0 % 0 m²/s² 0 0 4.5 2
07:00 68 J/kg 1.5 K 0 % 0 % 0 % 0 m²/s² 0 0 4.29 2
08:00 102 J/kg 1.1 K 0 % 0 % 0 % 0 m²/s² 0 0 3.59 3
09:00 78 J/kg 1.4 K 0 % 0 % 0 % 0 m²/s² 0 0 2.3 2
10:00 84 J/kg 0.8 K 0 % 0 % 0 % 0 m²/s² 0 0 3.8 2
11:00 96 J/kg 1.3 K 0 % 0 % 0 % 0 m²/s² 0 0 4.81 2
12:00 40 J/kg 2.7 K 0 % 0 % 0 % 0 m²/s² 0 0 3.48 85
13:00 202 J/kg 1.6 K 0 % 0 % 0 % 0 m²/s² 0 0 3.94 85
14:00 112 J/kg 3.1 K 0 % 0 % 0 % 0 m²/s² 0 0 4.84 85
15:00 136 J/kg 3.2 K 0 % 0 % 0 % 0 m²/s² 0 0 5.9 85
16:00 111 J/kg 4.1 K 0 % 0 % 0 % 0 m²/s² 0 0 5.9 85
17:00 80 J/kg 4.7 K 0 % 0 % 0 % 0 m²/s² 0 0 7.4 85
18:00 39 J/kg 6.0 K 0 % 0 % 0 % 0 m²/s² 0 0 9.57 2
19:00 111 J/kg 6.2 K 0 % 0 % 0 % 0 m²/s² 0 0 8.36 3
20:00 93 J/kg 6.8 K 0 % 0 % 0 % 0 m²/s² 0 0 9.44 85
21:00 133 J/kg 6.5 K 0 % 0 % 0 % 0 m²/s² 0 0 9.77 2
22:00 129 J/kg 6.4 K 0 % 0 % 0 % 0 m²/s² 0 0 9.19 1
23:00 91 J/kg 7.5 K 0 % 0 % 0 % 0 m²/s² 0 0 9.87 2
 06:53     20:27    Daglengte: 13:34 Zaterdag 04 Apr
00:00 38 J/kg 9.3 K 0 % 0 % 0 % 0 m²/s² 0 0 12.12 2
01:00 55 J/kg 9.7 K 0 % 0 % 0 % 0 m²/s² 0 0 14.83 2
02:00 44 J/kg 10.5 K 0 % 0 % 0 % 0 m²/s² 0 0 16.71 2
03:00 23 J/kg 11.1 K 0 % 0 % 0 % 0 m²/s² 0 0 17.13 2
04:00 19 J/kg 11.4 K 0 % 0 % 0 % 0 m²/s² 0 0 17.67 2
05:00 20 J/kg 11.1 K 0 % 0 % 0 % 0 m²/s² 0 0 16.32 1
06:00 23 J/kg 11.3 K 0 % 0 % 0 % 0 m²/s² 0 0 15.89 2
Temp Baro Wind Neerslag
  EWN Forecast EWN WRFDA DWD ICON FMI HIRLAM MET Norway GFS
 07:02     20:20    Daglengte: 13:18 Vandaag
08:00 6.1° 1013.0 hPa 5.9 m/s 0.3 mm 5.8° 1011.4 hPa 8.0 m/s 1.5 mm 5.3° 1012.8 hPa 1.4 m/s -1.8 mm 7.2° 1014.0 hPa 6.8 m/s 0.0 mm 6.0° 1013.3 hPa 5.1 m/s 6.2° 1012.4 hPa 8.4 m/s
11:00 6.5° 1011.8 hPa 6.2 m/s 0.0 mm 5.7° 1009.8 hPa 7.4 m/s 2.9 mm 6.2° 1011.1 hPa 4.4 m/s 1.8 mm 6.8° 1013.0 hPa 7.1 m/s 0.0 mm 6.7° 1012.2 hPa 6.2 m/s 6.2° 1010.1 hPa 7.0 m/s
14:00 6.3° 1009.2 hPa 7.3 m/s 1.7 mm 5.8° 1007.8 hPa 8.7 m/s 4.1 mm 6.3° 1008.8 hPa 6.4 m/s 1.0 mm 7.1° 1010.7 hPa 8.0 m/s 0.0 mm 6.3° 1009.6 hPa 6.4 m/s 6.0° 1008.1 hPa 8.8 m/s
17:00 6.5° 1006.5 hPa 8.9 m/s 3.4 mm 6.5° 1004.9 hPa 9.6 m/s 10.6 mm 6.5° 1006.1 hPa 8.4 m/s 2.6 mm 7.2° 1008.1 hPa 9.8 m/s 0.0 mm 6.2° 1006.8 hPa 8.6 m/s 6.4° 1005.3 hPa 9.9 m/s
20:00 6.3° 1005.4 hPa 6.7 m/s 1.9 mm 6.2° 1004.0 hPa 8.0 m/s 12.6 mm 6.2° 1004.9 hPa 6.6 m/s 0.9 mm 7.2° 1007.8 hPa 6.9 m/s 0.0 mm 5.8° 1005.6 hPa 4.5 m/s 6.2° 1004.5 hPa 9.0 m/s
23:00 5.8° 1005.2 hPa 5.7 m/s 0.0 mm 5.4° 1003.4 hPa 7.7 m/s 12.8 mm 5.9° 1004.2 hPa 7.0 m/s 0.2 mm 6.8° 1007.7 hPa 6.2 m/s 0.0 mm 5.1° 1005.6 hPa 4.0 m/s 5.9° 1004.4 hPa 9.6 m/s
 06:59     20:23    Daglengte: 13:24 Morgen
02:00 5.7° 1003.8 hPa 6.3 m/s 0.0 mm 5.2° 1002.1 hPa 6.3 m/s 12.8 mm 5.7° 1002.9 hPa 6.5 m/s 0.1 mm 6.9° 1006.7 hPa 6.7 m/s 0.0 mm 5.2° 1004.3 hPa 4.8 m/s 5.5° 1003.7 hPa 7.8 m/s
05:00 5.6° 1000.2 hPa 7.5 m/s 0.0 mm 5.1° 998.3 hPa 7.5 m/s 12.9 mm 5.6° 999.6 hPa 6.0 m/s 0.2 mm 6.8° 1003.8 hPa 8.3 m/s 0.0 mm 5.2° 1000.5 hPa 7.1 m/s 5.6° 999.8 hPa 9.7 m/s
08:00 5.4° 994.9 hPa 10.6 m/s 3.0 mm 4.9° 992.6 hPa 11.4 m/s 13.4 mm 5.2° 993.5 hPa 9.6 m/s 0.6 mm 6.8° 1001.0 hPa 9.9 m/s 0.0 mm 5.2° 995.6 hPa 10.0 m/s 5.2° 993.9 hPa 14.6 m/s
11:00 5.2° 991.5 hPa 11.8 m/s 4.0 mm 5.2° 987.7 hPa 14.8 m/s 15.0 mm 4.9° 990.0 hPa 11.4 m/s 1.6 mm 7.1° 997.9 hPa 11.2 m/s 0.0 mm 4.5° 992.4 hPa 10.2 m/s 4.7° 990.0 hPa 16.6 m/s
14:00 4.6° 990.5 hPa 12.2 m/s 2.7 mm 3.8° 988.4 hPa 14.1 m/s 18.5 mm 2.8° 988.9 hPa 11.3 m/s 0.5 mm 7.2° 996.3 hPa 10.7 m/s 0.0 mm 4.4° 991.6 hPa 12.3 m/s 3.7° 989.9 hPa 15.1 m/s
17:00 4.0° 988.1 hPa 12.4 m/s 1.5 mm 3.6° 986.0 hPa 14.0 m/s 22.4 mm 3.3° 983.3 hPa 6.6 m/s 0.6 mm 5.7° 995.0 hPa 10.1 m/s 0.0 mm 3.8° 990.1 hPa 12.5 m/s 3.9° 987.9 hPa 16.3 m/s
20:00 4.1° 991.6 hPa 9.1 m/s 2.2 mm 4.2° 990.5 hPa 10.3 m/s 27.2 mm 4.2° 988.5 hPa 11.5 m/s 0.9 mm 3.8° 995.7 hPa 6.6 m/s 0.0 mm 3.9° 992.1 hPa 7.5 m/s 4.2° 990.7 hPa 13.8 m/s
23:00 3.5° 994.5 hPa 9.3 m/s 4.0 mm 3.9° 993.5 hPa 10.2 m/s 28.4 mm 3.6° 993.0 hPa 11.7 m/s 0.4 mm 2.0° 994.7 hPa 3.3 m/s 4.3° 995.1 hPa 12.7 m/s
 06:56     20:25    Daglengte: 13:29 Vrijdag 03 Apr
02:00 2.9° 996.3 hPa 7.9 m/s 7.0 mm 2.1° 995.3 hPa 5.2 m/s 29.0 mm 2.5° 995.7 hPa 10.3 m/s 1.8 mm 2.8° 996.3 hPa 7.2 m/s 2.6° 997.4 hPa 12.3 m/s
05:00 2.7° 997.0 hPa 9.3 m/s 6.7 mm 2.5° 997.1 hPa 10.0 m/s 30.4 mm 2.5° 996.2 hPa 9.6 m/s 1.0 mm 2.6° 996.8 hPa 7.1 m/s 3.8° 998.8 hPa 13.1 m/s
08:00 2.3° 999.2 hPa 7.5 m/s 2.2 mm 2.9° 999.0 hPa 8.8 m/s 30.6 mm 2.4° 999.7 hPa 9.1 m/s 0.2 mm 0.8° 998.2 hPa 4.4 m/s 3.1° 1001.4 hPa 10.5 m/s
11:00 2.8° 1002.2 hPa 7.2 m/s 11.8 mm 2.9° 1000.3 hPa 11.6 m/s 33.6 mm 2.8° 1003.1 hPa 7.3 m/s 0.0 mm 2.3° 1002.0 hPa 4.6 m/s 3.3° 1002.9 hPa 11.4 m/s
14:00 3.6° 1005.4 hPa 7.3 m/s 7.8 mm 2.8° 1003.0 hPa 10.6 m/s 36.2 mm 2.9° 1004.8 hPa 7.4 m/s 0.5 mm 3.8° 1005.7 hPa 4.8 m/s 3.2° 1005.1 hPa 10.7 m/s
17:00 3.5° 1007.2 hPa 6.1 m/s 7.9 mm 2.7° 1005.0 hPa 6.0 m/s 37.3 mm 2.6° 1005.8 hPa 6.7 m/s 0.6 mm 3.6° 1008.2 hPa 4.4 m/s 2.9° 1007.3 hPa 8.9 m/s
20:00 3.2° 1009.2 hPa 4.8 m/s 11.3 mm 1.2° 1008.2 hPa 4.4 m/s 37.8 mm 2.1° 1007.1 hPa 5.6 m/s 0.3 mm 3.4° 1010.6 hPa 4.0 m/s 2.3° 1009.9 hPa 9.1 m/s
23:00 2.8° 1011.5 hPa 4.3 m/s 7.1 mm 1.2° 1010.3 hPa 5.3 m/s 38.9 mm 1.8° 1008.5 hPa 4.5 m/s 0.3 mm 3.0° 1012.7 hPa 3.0 m/s 2.4° 1012.5 hPa 7.5 m/s
 06:53     20:27    Daglengte: 13:34 Zaterdag 04 Apr
02:00 2.5° 1013.3 hPa 3.5 m/s 4.5 mm 1.8° 1012.8 hPa 5.4 m/s 40.6 mm 1.8° 1009.9 hPa 3.4 m/s 0.3 mm 2.5° 1014.8 hPa 2.0 m/s 2.6° 1015.4 hPa 7.9 m/s
05:00 2.0° 1015.2 hPa 2.6 m/s 14.0 mm 1.8° 1015.2 hPa 5.2 m/s 41.2 mm 1.4° 1011.6 hPa 3.6 m/s 0.4 mm 2.3° 1016.3 hPa 1.4 m/s 2.6° 1017.2 hPa 6.9 m/s
08:00 2.0° 1017.2 hPa 1.5 m/s 13.9 mm 2.4° 1017.7 hPa 4.0 m/s 41.2 mm 1.4° 1013.7 hPa 1.9 m/s 0.2 mm 2.1° 1017.8 hPa 0.7 m/s 2.6° 1019.9 hPa 5.2 m/s
11:00 4.3° 1020.5 hPa 2.0 m/s 17.3 mm 4.5° 1020.5 hPa 2.0 m/s 2.7° 1021.2 hPa 2.3 m/s 17.3 mm
14:00 5.5° 1021.8 hPa 2.7 m/s 17.3 mm 5.7° 1021.8 hPa 2.6 m/s 3.6° 1022.3 hPa 3.5 m/s 17.3 mm
17:00 5.7° 1021.8 hPa 3.6 m/s 17.3 mm 5.8° 1021.8 hPa 3.2 m/s 4.5° 1021.6 hPa 7.5 m/s 17.3 mm
20:00 5.7° 1021.9 hPa 4.3 m/s 17.3 mm 5.8° 1021.9 hPa 3.9 m/s 4.6° 1021.7 hPa 8.6 m/s 17.3 mm
23:00 5.8° 1022.0 hPa 4.4 m/s 17.3 mm 5.8° 1022.0 hPa 4.0 m/s 5.1° 1022.2 hPa 9.8 m/s 17.3 mm
 06:51     20:30    Daglengte: 13:39 Zondag 05 Apr
02:00 5.9° 1022.1 hPa 4.6 m/s 17.3 mm 5.9° 1022.1 hPa 4.0 m/s 5.3° 1022.2 hPa 11.1 m/s 17.3 mm
05:00 6.0° 1020.8 hPa 4.9 m/s 17.3 mm 6.1° 1020.8 hPa 4.3 m/s 5.1° 1021.0 hPa 11.5 m/s 17.3 mm
08:00 6.3° 1019.6 hPa 5.2 m/s 17.3 mm 6.3° 1019.5 hPa 4.7 m/s 5.8° 1020.5 hPa 11.1 m/s 17.3 mm
11:00 7.6° 1019.0 hPa 5.8 m/s 17.3 mm 7.6° 1018.9 hPa 5.5 m/s 7.2° 1020.0 hPa 9.3 m/s 17.3 mm
14:00 8.9° 1018.4 hPa 6.6 m/s 17.3 mm 8.9° 1018.3 hPa 6.3 m/s 8.5° 1019.6 hPa 10.0 m/s 17.3 mm
17:00 8.3° 1016.8 hPa 6.4 m/s 17.3 mm 8.2° 1016.7 hPa 6.1 m/s 9.1° 1018.5 hPa 10.1 m/s 17.3 mm
20:00 7.6° 1015.2 hPa 6.2 m/s 17.3 mm 7.5° 1015.1 hPa 5.9 m/s 8.6° 1016.7 hPa 9.6 m/s 17.3 mm
23:00 7.8° 1013.7 hPa 6.6 m/s 17.3 mm 7.7° 1013.5 hPa 6.3 m/s 8.8° 1016.2 hPa 10.1 m/s 17.3 mm
 06:48     20:32    Daglengte: 13:44 Maandag 06 Apr
02:00 7.9° 1012.2 hPa 7.0 m/s 17.3 mm 7.9° 1011.9 hPa 6.7 m/s 8.5° 1015.3 hPa 10.6 m/s 17.3 mm
05:00 8.3° 1010.0 hPa 7.3 m/s 17.3 mm 8.4° 1009.6 hPa 7.1 m/s 7.8° 1014.4 hPa 9.4 m/s 17.3 mm
08:00 8.8° 1007.8 hPa 7.5 m/s 17.3 mm 8.9° 1007.3 hPa 7.5 m/s 7.7° 1013.7 hPa 8.0 m/s 17.3 mm
11:00 9.9° 1008.0 hPa 7.5 m/s 17.3 mm 9.9° 1007.5 hPa 7.5 m/s 9.4° 1013.0 hPa 8.6 m/s 17.3 mm
14:00 10.8° 1008.2 hPa 7.6 m/s 17.3 mm 10.9° 1007.7 hPa 7.4 m/s 10.1° 1013.6 hPa 10.2 m/s 17.3 mm
17:00 9.8° 1007.9 hPa 7.1 m/s 17.5 mm 9.8° 1007.4 hPa 6.8 m/s 10.2° 1014.2 hPa 9.9 m/s 17.5 mm
20:00 8.7° 1007.7 hPa 6.3 m/s 20.2 mm 8.7° 1007.0 hPa 6.3 m/s 8.4° 1015.3 hPa 6.5 m/s 20.2 mm
23:00 7.9° 1011.9 hPa 3.6 m/s 20.7 mm 7.8° 1011.3 hPa 3.6 m/s 8.2° 1018.1 hPa 3.7 m/s 20.7 mm
 06:45     20:34    Daglengte: 13:49 Dinsdag 07 Apr
02:00 7.1° 1016.0 hPa 1.0 m/s 20.7 mm 7.0° 1015.6 hPa 0.9 m/s 7.6° 1020.7 hPa 2.4 m/s 20.7 mm
05:00 6.9° 1017.1 hPa 1.8 m/s 20.8 mm 7.0° 1016.6 hPa 1.6 m/s 6.7° 1022.7 hPa 3.4 m/s 20.8 mm
08:00 6.9° 1018.2 hPa 2.5 m/s 20.8 mm 6.9° 1017.6 hPa 2.4 m/s 6.5° 1024.5 hPa 3.4 m/s 20.8 mm
11:00 8.3° 1019.8 hPa 2.9 m/s 20.8 mm 8.4° 1019.2 hPa 3.0 m/s 7.2° 1025.7 hPa 1.6 m/s 20.8 mm
14:00 9.8° 1021.4 hPa 3.6 m/s 20.8 mm 9.9° 1020.9 hPa 3.6 m/s 8.9° 1026.7 hPa 3.1 m/s 20.8 mm
17:00 9.0° 1021.8 hPa 2.9 m/s 20.8 mm 8.9° 1021.2 hPa 2.9 m/s 10.2° 1027.9 hPa 2.3 m/s 20.8 mm
20:00 8.0° 1022.1 hPa 2.2 m/s 20.8 mm 7.9° 1021.5 hPa 2.2 m/s 9.7° 1028.6 hPa 1.9 m/s 20.8 mm
23:00 7.6° 1023.1 hPa 2.7 m/s 20.8 mm 7.5° 1022.5 hPa 2.6 m/s 9.2° 1029.5 hPa 3.6 m/s 20.8 mm
 06:42     20:37    Daglengte: 13:55 Woensdag 08 Apr
02:00 7.2° 1024.0 hPa 3.1 m/s 20.9 mm 7.0° 1023.5 hPa 3.0 m/s 9.2° 1029.6 hPa 3.9 m/s 20.9 mm
05:00 7.3° 1023.2 hPa 3.9 m/s 20.9 mm 7.0° 1022.6 hPa 3.5 m/s 9.8° 1028.9 hPa 8.6 m/s 20.9 mm
08:00 7.3° 1022.4 hPa 4.3 m/s 20.9 mm 7.1° 1021.8 hPa 4.0 m/s 10.1° 1028.5 hPa 7.6 m/s 20.9 mm
14:00 11.4° 1021.5 hPa 4.0 m/s 20.9 mm 11.4° 1021.0 hPa 3.7 m/s 11.1° 1027.4 hPa 7.5 m/s 20.9 mm
20:00 9.2° 1010.2 hPa 5.5 m/s 20.9 mm 9.2° 1008.8 hPa 5.6 m/s 9.7° 1025.2 hPa 4.9 m/s 20.9 mm
 06:39     20:39    Daglengte: 14:00 Donderdag 09 Apr
02:00 8.7° 1013.3 hPa 5.2 m/s 20.9 mm 8.7° 1012.3 hPa 5.0 m/s 8.9° 1024.4 hPa 7.1 m/s 20.9 mm
08:00 7.4° 1019.0 hPa 1.8 m/s 20.9 mm 7.4° 1018.6 hPa 1.7 m/s 7.5° 1023.4 hPa 2.6 m/s 20.9 mm
14:00 9.4° 1018.5 hPa 3.5 m/s 20.9 mm 9.5° 1018.2 hPa 3.7 m/s 8.9° 1022.1 hPa 1.9 m/s 20.9 mm
20:00 7.7° 1019.0 hPa 3.5 m/s 20.9 mm 7.5° 1019.1 hPa 3.3 m/s 9.7° 1018.4 hPa 5.9 m/s 20.9 mm
 06:36     20:41    Daglengte: 14:05 Vrijdag 10 Apr
02:00 7.2° 1016.6 hPa 2.2 m/s 22.7 mm 7.1° 1016.7 hPa 1.8 m/s 8.6° 1015.2 hPa 7.0 m/s 22.7 mm
08:00 6.9° 1017.9 hPa 1.2 m/s 25.5 mm 6.8° 1018.3 hPa 1.2 m/s 7.8° 1013.3 hPa 1.4 m/s 25.5 mm
14:00 7.0° 1014.6 hPa 9.8 m/s 28.5 mm 7.0° 1014.6 hPa 9.8 m/s 28.5 mm
20:00 6.5° 1018.4 hPa 11.0 m/s 28.5 mm 6.5° 1018.4 hPa 11.0 m/s 28.5 mm
 06:33     20:44    Daglengte: 14:11 Zaterdag 11 Apr
02:00 6.0° 1016.6 hPa 3.0 m/s 1.4 mm
08:00 5.9° 1016.3 hPa 2.5 m/s 1.5 mm
14:00 6.9° 1016.5 hPa 2.9 m/s 0.9 mm
20:00 6.7° 1015.0 hPa 3.2 m/s 0.8 mm
 06:30     20:46    Daglengte: 14:16 Zondag 12 Apr
02:00 6.2° 1014.2 hPa 4.2 m/s 0.6 mm
08:00 6.0° 1012.1 hPa 4.5 m/s 1.2 mm
14:00 6.7° 1011.6 hPa 3.0 m/s 1.7 mm
20:00 6.3° 1010.7 hPa 1.8 m/s 1.4 mm
 06:28     20:48    Daglengte: 14:20 Maandag 13 Apr
02:00 5.7° 1011.6 hPa 1.4 m/s 1.0 mm
08:00 5.6° 1011.9 hPa 1.2 m/s 0.2 mm
14:00 6.3° 1013.0 hPa 1.2 m/s 1.1 mm
20:00 6.1° 1013.6 hPa 1.6 m/s 0.8 mm
 06:25     20:51    Daglengte: 14:26 Dinsdag 14 Apr
02:00 5.5° 1014.3 hPa 0.9 m/s 0.6 mm
08:00 5.5° 1013.6 hPa 0.7 m/s 0.6 mm
14:00 6.3° 1013.9 hPa 2.4 m/s 1.2 mm
20:00 6.1° 1013.9 hPa 3.2 m/s 1.2 mm
 06:22     20:53    Daglengte: 14:31 Woensdag 15 Apr
02:00 5.7° 1015.4 hPa 2.0 m/s 0.5 mm
08:00 5.2° 1016.2 hPa 2.3 m/s 0.3 mm
14:00 6.2° 1017.3 hPa 2.4 m/s 0.3 mm
20:00 5.8° 1017.2 hPa 3.2 m/s 0.4 mm
 06:19     20:55    Daglengte: 14:36 Donderdag 16 Apr
02:00 5.1° 1017.7 hPa 1.7 m/s 0.3 mm
FMI Hirlam - 7.5 km EWN WRFDA - 12 km DWD ICON - 7 km GFS - 25 km Basiskaart